Regional Weather Roundup
Issued by NWS Cleveland, OH

Home | Current Version | Previous Version | Graphics & Text | Print | Product List | Glossary On
Versions: 1 2 3 4 5 6 7 8 9 10 11 12 13 14 15 16 17 18 19 20 21 22 23 24 25 26 27 28 29 30 31 32 33 34 35 36 37 38 39 40 41 42 43 44 45 46 47 48 49 50
374
ASUS41 KCLE 201102
RWRCLE
OHIO REGIONAL WEATHER ROUNDUP
NATIONAL WEATHER SERVICE CLEVELAND, OH
700 AM EDT THU JUL 20 2017

NOTE: "FAIR" INDICATES FEW OR NO CLOUDS BELOW 12,000 FEET WITH NO
SIGNIFICANT WEATHER AND/OR OBSTRUCTIONS TO VISIBILITY.

OHZ001>008-015>018-024>027-034-035-043-044-201200-
   NORTHWEST OHIO

CITY           SKY/WX    TMP DP  RH WIND       PRES   REMARKS
DEFIANCE       CLOUDY    73  69  87 NW7       30.05R
FINDLAY        CLOUDY    74  70  87 S8        30.02R FOG
TOLEDO EXPRESS CLOUDY    73  73 100 W6        30.01R
TOLEDO EXEC    PTCLDY    75  72  90 SW7       30.02R FOG
LIMA           CLOUDY    74  72  93 S7        30.04R
$$

OHZ009>014-019>023-028>033-038-089-201200-
   NORTHEAST OHIO

CITY           SKY/WX    TMP DP  RH WIND       PRES   REMARKS
CLE-HOPKINS    CLOUDY    76  68  76 S8        30.03S
CLE-LAKEFRONT  PTCLDY    77  67  71 S7        29.99F
CUY CO. ARPT   CLOUDY    72  68  88 S7        30.03
LORAIN-ELYRIA  CLOUDY    70  64  81 SW6       30.03R
ASHTABULA      PTCLDY    68  67  96 CALM      30.04R
AKRON-CANTON   MOCLDY    72  65  78 SW5       30.05S
WOOSTER        CLEAR     69  67  93 CALM      30.06S
MANSFIELD      CLOUDY    71  69  93 SW3       30.07R
YOUNGSTOWN     CLOUDY    72  66  81 SW5       30.05R
$$

OHZ042-051>053-060>062-070>072-077>081-201200-
  SOUTHWEST OHIO

CITY           SKY/WX    TMP DP  RH WIND       PRES   REMARKS
CINC-COVINGTON MOCLDY    69  69 100 S5        30.07R
CINC-LUNKEN    PTCLDY    68  68 100 S3        30.06R FOG
HAMILTON       CLOUDY    70  69  97 CALM      30.07R
DAYTON         MOCLDY    73  70  90 S6        30.08R
WRIGHT-PAT AFB PTCLDY    71  71  99 CALM      30.07R
DAYTON GENERAL CLEAR     71  68  90 CALM      30.06R
WILMINGTON     PTCLDY    66  66 100 CALM      30.08R FOG
$$

OHZ036-037-039>041-045>050-054>059-063>069-073>076-082>088-201200-
  CENTRAL AND SOUTHEAST OHIO

CITY           SKY/WX    TMP DP  RH WIND       PRES   REMARKS
COLUMBUS       MOCLDY    72  70  93 SE5       30.05R
OSU AIRPORT    CLEAR     72  69  90 S5        30.06R
BOLTON FIELD   NOT AVBL
RICKENBACK AFB CLEAR     68  68 100 S3        30.06R FOG
NEWARK         CLEAR     66  65  96 CALM      30.07R FOG
MARION         CLOUDY    70  66  87 W3        30.08R FOG
LANCASTER      CLEAR     63  63 100 CALM      30.07R FOG
ZANESVILLE     CLEAR     68  66  93 CALM      30.07R
NEW PHILLY     NOT AVBL
$$




USA.gov is the U.S. government's official web portal to all federal, state and local government web resources and services.